Regional Weather Roundup
Issued by NWS

Home | Current Version | Previous Version | Graphics & Text | Print | Product List | Glossary On
Versions: 1 2 3 4 5 6 7 8 9 10 11 12 13 14 15 16 17 18 19 20 21 22 23 24 25 26 27 28 29 30 31 32 33 34 35 36 37 38 39 40 41 42 43 44 45 46 47 48 49 50
000
ASUS43 KBIS 271710
RWRND

NORTH DAKOTA REGIONAL WEATHER ROUNDUP
NATIONAL WEATHER SERVICE BISMARCK ND
1200 PM CDT TUE SEP 27 2016

NOTE: "FAIR" INDICATES FEW OR NO CLOUDS BELOW 12,000 FEET WITH NO
SIGNIFICANT WEATHER AND/OR OBSTRUCTIONS TO VISIBILITY.


NDZ001>003-009>011-017-271800-
NORTHWEST NORTH DAKOTA

CITY           SKY/WX    TMP DP  RH WIND       PRES   REMARKS
WILLISTON      SUNNY     62  47  57 SE3       29.97F
MINOT          FAIR      62  37  39 W3        29.99S
MINOT AFB      FAIR      62  38  41 N5        29.98S
$$

NDZ018>021-031>035-040>046-271800-
SOUTHWEST NORTH DAKOTA

CITY           SKY/WX    TMP DP  RH WIND       PRES   REMARKS
BISMARCK       SUNNY     62  39  42 CALM      30.00F
DICKINSON      SUNNY     67  48  50 W6        29.99F
GARRISON         N/A     63  38  39 VRB3      29.99F
HETTINGER ARPT SUNNY     70  46  42 W6        30.02F
$$

NDZ004>008-012>016-024-026-027-054-271800-
NORTHEAST NORTH DAKOTA

CITY           SKY/WX    TMP DP  RH WIND       PRES   REMARKS
GRAND FORKS    FAIR      54  42  64 N21       29.91F
GRND FRKS AFB  FAIR      56  43  61 N12G22    29.91F
DEVILS LAKE    FAIR      56  37  49 N13       29.96F
$$

NDZ022-023-025-028>030-036>039-047>053-271800-
SOUTHEAST NORTH DAKOTA

CITY           SKY/WX    TMP DP  RH WIND       PRES   REMARKS
FARGO          FAIR      59  41  51 NW18      29.90F
JAMESTOWN      FAIR      61  34  36 NW17      29.95F
$$




USA.gov is the U.S. government's official web portal to all federal, state and local government web resources and services.